Regional Weather Roundup
Issued by NWS

Home | Current Version | Previous Version | Text Only | Print | Product List | Glossary On
Versions: 1 2 3 4 5 6 7 8 9 10 11 12 13 14 15 16 17 18 19 20 21 22 23 24 25 26 27 28 29 30 31 32 33 34 35 36 37 38 39 40 41 42 43 44 45 46 47 48 49 50
000
ASUS43 KLOT 171504
RWRIL

ILLINOIS REGIONAL WEATHER ROUNDUP
NATIONAL WEATHER SERVICE CHICAGO/ROMEOVILLE IL
1000 AM CDT TUE OCT 17 2017

NOTE: "FAIR" INDICATES FEW OR NO CLOUDS BELOW 12,000 FEET WITH NO
SIGNIFICANT WEATHER AND/OR OBSTRUCTIONS TO VISIBILITY.

* THESE STATIONS ARE NOT UNDER NWS QUALITY CONTROL. THEY ALSO MAY NOT
  REPORT WEATHER SUCH AS PRECIPITATION OR FOG.

ILZ001-002-007-009-015-016-024-171600-
NORTHWEST ILLINOIS

CITY           SKY/WX    TMP DP  RH WIND       PRES   REMARKS
MOLINE         SUNNY     59  41  51 SW12      30.19S
STERLING*      SUNNY     60  45  57 SW10        N/A
SAVANNA*       SUNNY     60  43  53 SW8       30.17F
$$

ILZ003-004-008-010-011-017-018-171600-
NORTH CENTRAL ILLINOIS

CITY           SKY/WX    TMP DP  RH WIND       PRES   REMARKS
ROCKFORD       MOSUNNY   61  44  53 SW8       30.19S
FREEPORT*      SUNNY     56  41  57 SW15G21   30.18F
ROCHELLE*      SUNNY     61  41  48 SW14G24   30.20S
DE KALB*       SUNNY     60  42  51 SW18      30.20S
PERU*          SUNNY     56  42  57 SW15      30.24S
$$

ILZ005-006-012>014-019>023-171600-
NORTHEAST ILLINOIS

CITY           SKY/WX    TMP DP  RH WIND       PRES   REMARKS
CHICAGO-OHARE  MOSUNNY   58  42  55 SW14G23   30.19S
CHICAGO-MIDWAY MOSUNNY   58  42  55 SW17      30.20F
AURORA         SUNNY     58  44  60 SW15G24   30.21F
LANSING*       SUNNY     57  45  64 SW13      30.24S
JOLIET*        SUNNY     58  44  60 SW9       30.24S
WAUKEGAN       SUNNY     61  42  49 SW14G22   30.15S
DUPAGE AIRPORT SUNNY     57  44  62 SW17      30.19F
KANKAKEE*      SUNNY     58  40  52 SW15G21   30.27F
WHEELING       SUNNY     60  43  53 SW12      30.19S
MORRIS*        SUNNY     59  44  56 SW13      30.23S
NORTHERLY ISL    N/A     57  40  52 SW9         N/A
$$

LMZ740>746-171600-
SOUTHERN LAKE MICHIGAN

STATION/POSITION SKY/WX   TEMP    WIND        PRES    VSBY  WAVE
                          AIR SEA DIR/SP/G                  HT/PER
                          (F)     (DEG/KT/KT) (MB)    (MI)  (FT/S)
SOUTHERN BUOY              59 62  260/ 23/ 29 1020.4          5/ 6
WILMETTE HARBOR            58 57  230/ 16/ 23   N/A           3/ 3
HARRISON CRIB              58     220/ 22/ 24   N/A
BURNHAM HARBOR             57     200/  8/ 10   N/A
CALUMET HARBOR             56     210/ 11/ 16 1022.4F
BURNS HARBOR               57     210/ 14/ 18 1023.7F
MICHIGAN CITY              56     190/ 18/ 22   N/A
MICHIGAN CITY 6N           56 57  220/ 17/ 21   N/A           3/ 4
ST. JOSEPH                 56 56  230/ 16/ 21 1023.7R         4/ 5
$$

ILZ025>027-034>036-040-047-049-050-058-095>099-171600-
WEST-CENTRAL ILLINOIS

CITY           SKY/WX    TMP DP  RH WIND       PRES   REMARKS
QUINCY         SUNNY     58  42  55 S13       30.26F
GALESBURG*     SUNNY     57  45  64 S9G16     30.25S
MACOMB*        SUNNY     59  42  53 SW10      30.28R
JACKSONVILLE*  SUNNY     58  40  52 S9        30.30S
PITTSFIELD*    SUNNY     58  42  56 S8        30.31R
$$

ILZ028>032-037-038-041>044-048-051>054-059>061-171600-
CENTRAL ILLINOIS

CITY           SKY/WX    TMP DP  RH WIND       PRES   REMARKS
PONTIAC        MOSUNNY   60  43  53 SW12      30.27S
BLOOMINGTON    SUNNY     57  42  57 SW16      30.28F
DECATUR        LGT RAIN  57  41  55 SW17      30.32F
PEORIA         SUNNY     55  44  66 SW13      30.27S
LACON*         SUNNY     56  43  63 SW12G18   30.25S
LINCOLN*       SUNNY     59  44  58 S7        30.29F
SPRINGFIELD    SUNNY     59  42  53 S9G18     30.30S
TAYLORVILLE    SUNNY     58  40  51 S12       30.33S
$$

ILZ033-039-045-046-055>057-062-063-171600-
EAST-CENTRAL ILLINOIS

CITY           SKY/WX    TMP DP  RH WIND       PRES   REMARKS
CHAMPAIGN      SUNNY     59  40  49 SW16      30.33S
DANVILLE*      SUNNY     57  39  51 SW14      30.30S
RANTOUL*       SUNNY     59  43  54 SW16G22   30.31S
MATTOON        SUNNY     57  41  55 S10       30.34S
PARIS*         SUNNY     58  41  51 SW16      30.35S
$$

ILZ079-100>102-171600-
SOUTHWEST ILLINOIS

CITY           SKY/WX    TMP DP  RH WIND       PRES   REMARKS
ALTON          PTSUNNY   55  43  62 SW14      30.34S
CAHOKIA*       SUNNY     60  37  42 SW8       30.35R
SPARTA*        MOSUNNY   55  39  56 S7        30.37S
$$

ILZ064>066-069>071-074>076-080>082-084>086-088>090-092>094-171600-
SOUTH-CENTRAL ILLINOIS

CITY           SKY/WX    TMP DP  RH WIND       PRES   REMARKS
CARBONDALE     MOSUNNY   56  44  64 S5        30.38S
EFFINGHAM*     SUNNY     58  43  57 S8        30.37F
MARION         MOSUNNY   57  43  58 S8        30.39S
MT. VERNON     SUNNY     57  46  66 S8        30.38S
CENTRALIA*     SUNNY     59  42  53 S8        30.36S
SALEM*         SUNNY     60  39  45 S10       30.36F
METROPOLIS*    SUNNY     56  47  70 CALM      30.40R
$$

ILZ067-068-072-073-078-083-087-091-171600-
SOUTHEAST ILLINOIS

CITY           SKY/WX    TMP DP  RH WIND       PRES   REMARKS
LAWRENCEVILLE  SUNNY     56  45  66 S7        30.38S
FLORA*         SUNNY     59  43  56 S10       30.37F
FAIRFIELD*     SUNNY     56  43  61 S5        30.37F
HARRISBURG*    SUNNY     53  45  74 CALM      30.39S
ROBINSON*      SUNNY     58  42  54 SW7       30.38S
CARMI*         SUNNY     56  45  64 S6        30.38S HAZE
$$

ABBREVIATIONS USED IN REMARKS
   TC - TEMPERATURE IN CELSIUS
  WCI - WIND CHILL INDEX
   HX - HEAT INDEX
  VSB - VISIBILITY
$$




USA.gov is the U.S. government's official web portal to all federal, state and local government web resources and services.